PSCRJ SBRJ-SDRS

Flight info

Callsign PSCRJ
Flight time 0h 38m
Altitude 4500
Route DCT REH 2254S04311DCT 2254S04312W DCT 2253S04313W DCT 2252S04314W DCT 2249S04319W DCT 2248S04320W DCT 2247S04321W DCT 2245S04325W DCT 2243S04336W DCT 2243S04342W N0140 A045 VFR DCT 2231S04408W DCT
Aircraft S76/L-SDFGR/S

Departure

Time 2026-05-05 23:55
Airport Santos Dumont Airport (SBRJ)

Arrival

Time 2026-05-06 00:33
Airport Resende Airport (SDRS)
Time Latitude Longitude Altitude Speed Heading
2026-05-05 23:54 -22.90520 -43.16579 15 ft 0 kts 167°
2026-05-05 23:54 -22.90544 -43.16582 103 ft 13 kts 180°
2026-05-05 23:54 -22.90543 -43.16841 269 ft 62 kts 267°
2026-05-05 23:55 -22.90428 -43.17185 657 ft 82 kts 284°
2026-05-05 23:55 -22.90586 -43.17878 1209 ft 110 kts 240°
2026-05-05 23:55 -22.91204 -43.18411 1668 ft 119 kts 200°
2026-05-05 23:55 -22.91810 -43.18479 1826 ft 0 kts 357°
2026-05-05 23:56 -22.93856 -43.17711 1826 ft 0 kts
2026-05-05 23:56 -22.93675 -43.17693 1837 ft 127 kts
2026-05-05 23:56 -22.92781 -43.17632 1958 ft 123 kts
2026-05-05 23:56 -22.92023 -43.17829 1829 ft 107 kts 317°
2026-05-05 23:57 -22.91709 -43.18435 1563 ft 80 kts 282°
2026-05-05 23:57 -22.91567 -43.18942 1032 ft 62 kts 285°
2026-05-05 23:57 -22.91446 -43.19400 855 ft 83 kts 284°
2026-05-05 23:57 -22.91241 -43.20213 1199 ft 139 kts 286°
2026-05-05 23:58 -22.90803 -43.21223 1106 ft 153 kts 298°
2026-05-05 23:58 -22.90208 -43.22171 825 ft 146 kts 304°
2026-05-05 23:58 -22.89583 -43.23059 713 ft 151 kts 306°
2026-05-05 23:58 -22.88967 -43.23924 579 ft 137 kts 307°
2026-05-05 23:59 -22.88348 -43.24711 644 ft 137 kts 313°
2026-05-05 23:59 -22.87650 -43.25426 672 ft 139 kts 315°
2026-05-05 23:59 -22.86975 -43.26196 687 ft 142 kts 311°
2026-05-05 23:59 -22.86300 -43.26978 692 ft 143 kts 312°
2026-05-06 00:00 -22.85621 -43.27763 695 ft 143 kts 312°
2026-05-06 00:00 -22.84944 -43.28548 697 ft 143 kts 312°
2026-05-06 00:00 -22.84269 -43.29330 697 ft 143 kts 312°
2026-05-06 00:00 -22.83598 -43.30107 744 ft 139 kts 312°
2026-05-06 00:01 -22.82927 -43.30884 770 ft 140 kts 312°
2026-05-06 00:01 -22.82256 -43.31661 785 ft 141 kts 312°
2026-05-06 00:01 -22.81579 -43.32444 792 ft 142 kts 312°
2026-05-06 00:01 -22.80903 -43.33228 795 ft 142 kts 312°
2026-05-06 00:02 -22.80225 -43.34012 796 ft 143 kts 312°
2026-05-06 00:02 -22.79548 -43.34797 798 ft 143 kts 312°
2026-05-06 00:02 -22.78873 -43.35578 798 ft 143 kts 312°
2026-05-06 00:02 -22.78194 -43.36363 796 ft 143 kts 312°
2026-05-06 00:03 -22.77516 -43.37149 798 ft 143 kts 312°
2026-05-06 00:03 -22.76838 -43.37934 797 ft 143 kts 312°
2026-05-06 00:03 -22.76162 -43.38716 797 ft 143 kts 312°
2026-05-06 00:03 -22.75483 -43.39501 799 ft 143 kts 312°
2026-05-06 00:04 -22.74875 -43.40343 786 ft 142 kts 294°
2026-05-06 00:04 -22.74818 -43.41372 821 ft 141 kts 259°
2026-05-06 00:04 -22.74978 -43.42423 803 ft 142 kts 260°
2026-05-06 00:04 -22.75134 -43.43483 799 ft 142 kts 259°
2026-05-06 00:05 -22.75476 -43.45594 796 ft 143 kts 259°
2026-05-06 00:05 -22.75444 -43.46646 771 ft 143 kts 288°
2026-05-06 00:05 -22.74776 -43.47409 760 ft 141 kts 328°
2026-05-06 00:06 -22.73946 -43.47983 904 ft 144 kts 322°
2026-05-06 00:06 -22.73147 -43.48639 1082 ft 148 kts 322°
2026-05-06 00:06 -22.72354 -43.49258 1018 ft 153 kts 323°
2026-05-06 00:06 -22.71514 -43.49931 999 ft 147 kts 320°
2026-05-06 00:07 -22.70925 -43.50814 1008 ft 145 kts 293°
2026-05-06 00:07 -22.70808 -43.51880 1013 ft 144 kts 263°
2026-05-06 00:07 -22.70951 -43.52970 1001 ft 146 kts 261°
2026-05-06 00:07 -22.71093 -43.54065 998 ft 147 kts 260°
2026-05-06 00:08 -22.71252 -43.55160 997 ft 147 kts 260°
2026-05-06 00:08 -22.71409 -43.56251 996 ft 147 kts 260°
2026-05-06 00:08 -22.71568 -43.57345 998 ft 147 kts 260°
2026-05-06 00:08 -22.71715 -43.58445 995 ft 147 kts 263°
2026-05-06 00:09 -22.71701 -43.59547 998 ft 146 kts 274°
2026-05-06 00:09 -22.71560 -43.60616 1098 ft 146 kts 278°
2026-05-06 00:09 -22.71409 -43.61688 1159 ft 139 kts 277°
2026-05-06 00:09 -22.71259 -43.62704 1263 ft 136 kts 278°
2026-05-06 00:10 -22.71109 -43.63711 1389 ft 135 kts 278°
2026-05-06 00:10 -22.70958 -43.64715 1510 ft 135 kts 278°
2026-05-06 00:10 -22.70808 -43.65718 1629 ft 135 kts 278°
2026-05-06 00:10 -22.70657 -43.66721 1746 ft 135 kts 278°
2026-05-06 00:11 -22.70575 -43.67730 1856 ft 135 kts 267°
2026-05-06 00:11 -22.70596 -43.68744 1966 ft 135 kts 274°
2026-05-06 00:11 -22.70446 -43.69739 2081 ft 134 kts 278°
2026-05-06 00:11 -22.70303 -43.70748 2275 ft 136 kts 277°
2026-05-06 00:12 -22.70149 -43.71765 2422 ft 137 kts 278°
2026-05-06 00:12 -22.69890 -43.72757 2569 ft 138 kts 291°
2026-05-06 00:12 -22.69487 -43.73697 2773 ft 139 kts 294°
2026-05-06 00:12 -22.69083 -43.74647 2948 ft 139 kts 294°
2026-05-06 00:13 -22.68672 -43.75593 3120 ft 139 kts 294°
2026-05-06 00:13 -22.68263 -43.76533 3287 ft 139 kts 294°
2026-05-06 00:13 -22.67855 -43.77477 3450 ft 138 kts 294°
2026-05-06 00:13 -22.67452 -43.78424 3649 ft 138 kts 294°
2026-05-06 00:14 -22.67054 -43.79371 3828 ft 138 kts 294°
2026-05-06 00:14 -22.66666 -43.80311 4001 ft 137 kts 294°
2026-05-06 00:14 -22.66281 -43.81250 4187 ft 136 kts 294°
2026-05-06 00:14 -22.65902 -43.82186 4387 ft 136 kts 294°
2026-05-06 00:15 -22.65523 -43.83126 4520 ft 141 kts 294°
2026-05-06 00:15 -22.65137 -43.84085 4509 ft 141 kts 294°
2026-05-06 00:15 -22.64745 -43.85057 4499 ft 141 kts 294°
2026-05-06 00:15 -22.64355 -43.86029 4498 ft 141 kts 294°
2026-05-06 00:16 -22.63963 -43.87003 4498 ft 141 kts 294°
2026-05-06 00:16 -22.63572 -43.87973 4497 ft 141 kts 294°
2026-05-06 00:16 -22.63178 -43.88947 4497 ft 141 kts 294°
2026-05-06 00:16 -22.62787 -43.89916 4496 ft 141 kts 294°
2026-05-06 00:17 -22.62390 -43.90896 4498 ft 141 kts 294°
2026-05-06 00:17 -22.61997 -43.91870 4496 ft 141 kts 294°
2026-05-06 00:17 -22.61603 -43.92842 4497 ft 141 kts 294°
2026-05-06 00:17 -22.61208 -43.93818 4497 ft 142 kts 294°
2026-05-06 00:18 -22.60814 -43.94793 4496 ft 142 kts 294°
2026-05-06 00:18 -22.60420 -43.95766 4497 ft 142 kts 294°
2026-05-06 00:18 -22.60025 -43.96742 4496 ft 141 kts 294°
2026-05-06 00:18 -22.59631 -43.97717 4497 ft 141 kts 294°
2026-05-06 00:19 -22.59238 -43.98690 4496 ft 141 kts 294°
2026-05-06 00:19 -22.58843 -43.99666 4496 ft 141 kts 294°
2026-05-06 00:19 -22.58450 -44.00638 4496 ft 142 kts 294°
2026-05-06 00:19 -22.58055 -44.01614 4496 ft 142 kts 294°
2026-05-06 00:20 -22.57661 -44.02588 4500 ft 142 kts 294°
2026-05-06 00:20 -22.57264 -44.03555 4496 ft 141 kts 296°
2026-05-06 00:20 -22.56776 -44.04475 4498 ft 140 kts 302°
2026-05-06 00:20 -22.56258 -44.05376 4498 ft 141 kts 302°
2026-05-06 00:21 -22.55741 -44.06276 4500 ft 141 kts 302°
2026-05-06 00:21 -22.55222 -44.07174 4498 ft 141 kts 302°
2026-05-06 00:21 -22.54700 -44.08077 4497 ft 141 kts 302°
2026-05-06 00:21 -22.54178 -44.08979 4500 ft 142 kts 302°
2026-05-06 00:22 -22.53656 -44.09881 4498 ft 142 kts 302°
2026-05-06 00:22 -22.53131 -44.10787 4497 ft 142 kts 302°
2026-05-06 00:22 -22.52606 -44.11692 4498 ft 142 kts 302°
2026-05-06 00:22 -22.52082 -44.12597 4497 ft 142 kts 302°
2026-05-06 00:23 -22.51555 -44.13506 4496 ft 142 kts 302°
2026-05-06 00:23 -22.51172 -44.14481 4496 ft 142 kts 283°
2026-05-06 00:23 -22.51023 -44.15544 4495 ft 143 kts 279°
2026-05-06 00:23 -22.50868 -44.16612 4496 ft 144 kts 279°
2026-05-06 00:24 -22.50730 -44.17680 4496 ft 144 kts 278°
2026-05-06 00:24 -22.50619 -44.18757 4498 ft 144 kts 277°
2026-05-06 00:24 -22.50512 -44.19837 4496 ft 144 kts 277°
2026-05-06 00:24 -22.50406 -44.20917 4497 ft 144 kts 277°
2026-05-06 00:25 -22.50301 -44.21993 4497 ft 144 kts 277°
2026-05-06 00:25 -22.50204 -44.22981 4496 ft 144 kts 277°
2026-05-06 00:25 -22.50101 -44.24028 4498 ft 144 kts 277°
2026-05-06 00:25 -22.49993 -44.25108 4493 ft 147 kts 277°
2026-05-06 00:26 -22.49852 -44.26208 4500 ft 150 kts 277°
2026-05-06 00:26 -22.49700 -44.27318 4499 ft 150 kts 277°
2026-05-06 00:26 -22.49548 -44.28432 4500 ft 150 kts 277°
2026-05-06 00:26 -22.49396 -44.29539 4500 ft 149 kts 277°
2026-05-06 00:27 -22.49243 -44.30652 4500 ft 150 kts 277°
2026-05-06 00:27 -22.49091 -44.31764 4500 ft 149 kts 277°
2026-05-06 00:27 -22.48939 -44.32874 4501 ft 149 kts 277°
2026-05-06 00:27 -22.48787 -44.33986 4500 ft 150 kts 277°
2026-05-06 00:28 -22.48635 -44.35098 4500 ft 150 kts 277°
2026-05-06 00:28 -22.48483 -44.36204 4491 ft 149 kts 277°
2026-05-06 00:28 -22.48332 -44.37307 4420 ft 147 kts 277°
2026-05-06 00:28 -22.48183 -44.38398 4359 ft 147 kts 277°
2026-05-06 00:29 -22.48033 -44.39490 4297 ft 147 kts 277°
2026-05-06 00:29 -22.47886 -44.40570 4160 ft 144 kts 277°
2026-05-06 00:29 -22.47741 -44.41636 4012 ft 143 kts 277°
2026-05-06 00:29 -22.47596 -44.42697 3871 ft 143 kts 277°
2026-05-06 00:30 -22.47451 -44.43763 3734 ft 143 kts 277°
2026-05-06 00:30 -22.47306 -44.44826 3602 ft 143 kts 277°
2026-05-06 00:30 -22.47162 -44.45884 3475 ft 143 kts 277°
2026-05-06 00:30 -22.47016 -44.46953 3351 ft 143 kts 277°
2026-05-06 00:31 -22.46872 -44.48015 3232 ft 143 kts 277°
2026-05-06 00:31 -22.46742 -44.49084 3115 ft 143 kts 274°
2026-05-06 00:31 -22.46688 -44.50160 3005 ft 143 kts 271°
2026-05-06 00:31 -22.46735 -44.51231 2875 ft 144 kts 253°
2026-05-06 00:32 -22.47332 -44.52054 2714 ft 140 kts 212°
2026-05-06 00:32 -22.48261 -44.52254 2707 ft 141 kts 170°
2026-05-06 00:32 -22.49068 -44.51709 2702 ft 141 kts 126°
2026-05-06 00:32 -22.49305 -44.50721 2701 ft 140 kts 83°
2026-05-06 00:33 -22.48970 -44.49974 2378 ft 84 kts 46°
2026-05-06 00:33 -22.48689 -44.49587 2165 ft 46 kts 51°
2026-05-06 00:33 -22.48550 -44.49360 1832 ft 33 kts 52°
2026-05-06 00:33 -22.48408 -44.49131 1588 ft 36 kts 53°
2026-05-06 00:34 -22.48286 -44.48907 1511 ft 35 kts 56°
2026-05-06 00:34 -22.48158 -44.48687 1438 ft 35 kts 54°
2026-05-06 00:34 -22.48017 -44.48446 1397 ft 39 kts 54°
2026-05-06 00:34 -22.47848 -44.48141 1374 ft 54 kts 56°
2026-05-06 00:35 -22.47663 -44.47809 1406 ft 28 kts 55°
2026-05-06 00:35 -22.47644 -44.47777 1334 ft 2 kts 55°
2026-05-06 00:35 -22.47632 -44.47754 1324 ft 21 kts 58°
2026-05-06 00:35 -22.47575 -44.47651 1324 ft 0 kts 96°
2026-05-06 00:36 -22.47610 -44.47587 1324 ft 16 kts 135°
2026-05-06 00:36 -22.47629 -44.47566 1324 ft 0 kts 134°